Date String (YYYY-MM-DD hh:mm:ss) UTC,Instrument flags,absolute air pressure of the measurement (hPa),sample flow rate (lpm),inlet stack bypass flow (lpm),air temperature of the measurement (°C),ambient temperature measured by the external sensor (°C),aerosol sample conditioner tube jacket temperature (°C),OPC LED temperature (°C),internal box temperature (°C),relative humidity of the measurement (%),span deviation,mass concentration of particles derived from Lorenz-Mie calculation of OPC scattering (μg/m³),mass concentration of particles derived from Lorenz-Mie calculation of OPC scattering (μg/m³),mass concentration of particles derived from Lorenz-Mie calculation of OPC scattering (μg/m³)
DateTimeUTC,F1_M11,P_M11,Q1_M11,Q2_M11,T1_M11,T2_M11,T3_M11,T4_M11,T5_M11,U1_M11,ZSPAN_M11,X0_M11,X2_M11,X1_M11
2023-11-13 12:00:00,SystemResetWarning,0836.0,5.01,000.00,023.5,022.5,000.0,031.9,025.0,9.3,0000.0,0007.29,0003.68,0003.03
2023-11-13 12:01:00,SystemResetWarning,0836.0,5.00,000.00,023.5,022.5,000.0,031.9,025.0,9.3,0000.0,0007.41,0003.69,0003.02
2023-11-13 12:02:00,SystemResetWarning,0836.1,5.00,000.00,023.5,022.5,000.0,031.9,025.0,9.3,0000.0,0008.72,0003.68,0003.04
2023-11-13 12:03:00,SystemResetWarning,0836.1,5.00,000.00,023.5,022.5,000.0,031.9,024.9,9.3,0000.0,0008.77,0003.67,0003.05
2023-11-13 12:04:00,SystemResetWarning,0836.1,5.00,000.00,023.5,022.5,000.0,031.9,025.0,9.3,0000.0,0008.75,0003.66,0003.05
2023-11-13 12:05:00,SystemResetWarning,0836.1,5.00,000.00,023.5,022.5,000.0,031.9,025.0,9.3,0000.0,0008.62,0003.63,0003.01
2023-11-13 12:06:00,SystemResetWarning,0836.1,5.00,000.00,023.5,022.5,000.0,031.9,025.0,9.3,0000.0,0008.52,0003.64,0002.98
2023-11-13 12:07:00,SystemResetWarning,0836.1,5.00,000.00,023.5,022.6,000.0,031.9,025.0,9.3,0000.0,0008.48,0003.65,0002.98
2023-11-13 12:08:00,SystemResetWarning,0836.1,5.00,000.00,023.5,022.6,000.0,031.9,025.0,9.3,0000.0,0008.56,0003.65,0002.99
2023-11-13 12:09:00,SystemResetWarning,0836.1,5.00,000.00,023.5,022.6,000.0,031.9,025.0,9.4,0000.0,0008.84,0003.65,0002.98
2023-11-13 12:10:00,SystemResetWarning,0836.1,5.00,000.00,023.5,022.6,000.0,031.9,025.0,9.4,0000.0,0009.09,0003.65,0002.98
2023-11-13 12:11:00,SystemResetWarning,0836.1,4.99,000.00,023.6,022.6,000.0,031.9,025.0,9.4,0000.0,0009.16,0003.66,0002.99
2023-11-13 12:12:00,SystemResetWarning,0836.1,5.00,000.00,023.5,022.6,000.0,031.9,025.0,9.4,0000.0,0009.81,0003.68,0003.02
2023-11-13 12:13:00,SystemResetWarning,0836.2,5.00,000.00,023.6,022.6,000.0,031.9,025.0,9.4,0000.0,0008.86,0003.67,0003.04
2023-11-13 12:14:00,SystemResetWarning,0836.1,5.00,000.00,023.6,022.6,000.0,031.9,025.0,9.4,0000.0,0008.78,0003.72,0003.06
2023-11-13 12:15:00,SystemResetWarning,0836.1,5.00,000.00,023.6,022.6,000.0,031.9,025.0,9.4,0000.0,0009.18,0003.76,0003.10
2023-11-13 12:16:00,SystemResetWarning,0836.1,5.01,000.00,023.6,022.7,000.0,031.9,025.0,9.4,0000.0,0009.66,0003.79,0003.13
2023-11-13 12:17:00,SystemResetWarning,0836.2,5.00,000.00,023.6,022.7,000.0,031.9,025.0,9.4,0000.0,0009.89,0003.88,0003.18
2023-11-13 12:18:00,SystemResetWarning,0836.1,5.00,000.00,023.6,022.6,000.0,031.9,025.0,9.4,0000.0,0009.83,0003.90,0003.22
2023-11-13 12:19:00,SystemResetWarning,0836.1,5.00,000.00,023.6,022.7,000.0,031.9,025.0,9.4,0000.0,0009.98,0003.95,0003.25
2023-11-13 12:20:00,SystemResetWarning,0836.1,5.00,000.00,023.6,022.7,000.0,031.9,025.0,9.4,0000.0,0009.96,0004.00,0003.30
2023-11-13 12:21:00,SystemResetWarning,0836.1,5.00,000.00,023.6,022.7,000.0,031.9,025.0,9.4,0000.0,0009.53,0004.01,0003.35
2023-11-13 12:22:00,SystemResetWarning,0836.0,5.00,000.00,023.6,022.7,000.0,031.9,025.0,9.4,0000.0,0009.78,0004.02,0003.37
2023-11-13 12:23:00,SystemResetWarning,0836.0,5.00,000.00,023.6,022.7,000.0,031.9,025.0,9.3,0000.0,0009.48,0004.05,0003.39
2023-11-13 12:24:00,SystemResetWarning,0835.9,5.00,000.00,023.6,022.7,000.0,031.9,025.0,9.3,0000.0,0009.87,0004.07,0003.40
2023-11-13 12:25:00,SystemResetWarning,0835.9,5.00,000.00,023.6,022.7,000.0,031.9,025.0,9.3,0000.0,0009.89,0004.09,0003.41
2023-11-13 12:26:00,SystemResetWarning,0836.0,5.00,000.00,023.6,022.7,000.0,031.9,025.0,9.3,0000.0,0009.78,0004.08,0003.41
2023-11-13 12:27:00,SystemResetWarning,0836.0,5.00,000.00,023.6,022.7,000.0,031.9,025.0,9.3,0000.0,0009.24,0004.09,0003.40
2023-11-13 12:28:00,SystemResetWarning,0836.1,4.99,000.00,023.6,022.7,000.0,031.9,025.0,9.3,0000.0,0009.20,0004.06,0003.39
2023-11-13 12:29:00,SystemResetWarning,0836.1,4.99,000.00,023.6,022.7,000.0,031.9,025.0,9.3,0000.0,0009.32,0004.06,0003.37
2023-11-13 12:30:00,SystemResetWarning,0836.1,4.99,000.00,023.6,022.7,000.0,031.9,025.0,9.3,0000.0,0009.35,0004.07,0003.35
2023-11-13 12:31:00,SystemResetWarning,0836.0,4.99,000.00,023.6,022.7,000.0,031.9,025.0,9.3,0000.0,0009.12,0004.05,0003.32
2023-11-13 12:32:00,SystemResetWarning,0836.1,5.00,000.00,023.6,022.7,000.0,031.9,025.0,9.3,0000.0,0009.22,0004.04,0003.28
2023-11-13 12:33:00,SystemResetWarning,0836.1,5.00,000.00,023.6,022.6,000.0,031.9,025.0,9.4,0000.0,0009.26,0004.03,0003.26
2023-11-13 12:34:00,SystemResetWarning,0836.1,5.00,000.00,023.6,022.6,000.0,031.9,025.0,9.4,0000.0,0009.24,0004.00,0003.25
2023-11-13 12:35:00,SystemResetWarning,0836.1,5.00,000.00,023.6,022.6,000.0,031.9,025.0,9.4,0000.0,0009.03,0004.00,0003.24
2023-11-13 12:36:00,SystemResetWarning,0836.1,5.01,000.00,023.6,022.6,000.0,031.9,024.9,9.4,0000.0,0008.82,0004.00,0003.24
2023-11-13 12:37:00,SystemResetWarning,0836.1,5.00,000.00,023.5,022.6,000.0,031.9,024.9,9.4,0000.0,0008.78,0003.97,0003.24
2023-11-13 12:38:00,SystemResetWarning,0836.1,5.00,000.00,023.5,022.5,000.0,031.9,024.9,9.4,0000.0,0008.75,0003.95,0003.25
2023-11-13 12:39:00,SystemResetWarning,0836.0,5.00,000.00,023.5,022.5,000.0,031.9,024.9,9.4,0000.0,0008.66,0003.96,0003.26
2023-11-13 12:40:00,SystemResetWarning,0836.0,5.00,000.00,023.5,022.5,000.0,031.9,024.9,9.4,0000.0,0008.61,0003.96,0003.28
2023-11-13 12:41:00,SystemResetWarning,0836.0,5.00,000.00,023.5,022.5,000.0,031.9,024.9,9.4,0000.0,0008.58,0003.96,0003.30
2023-11-13 12:42:00,SystemResetWarning,0836.0,5.00,000.00,023.5,022.5,000.0,031.9,024.9,9.4,0000.0,0008.61,0003.98,0003.32
2023-11-13 12:43:00,SystemResetWarning,0836.1,5.01,000.00,023.5,022.4,000.0,031.9,024.8,9.4,0000.0,0008.50,0003.97,0003.33
2023-11-13 12:44:00,SystemResetWarning,0836.0,5.00,000.00,023.5,022.4,000.0,031.9,024.9,9.4,0000.0,0008.48,0004.01,0003.35
2023-11-13 12:45:00,SystemResetWarning,0835.9,5.00,000.00,023.5,022.4,000.0,031.9,024.8,9.4,0000.0,0008.39,0004.05,0003.35
2023-11-13 12:46:00,SystemResetWarning,0835.9,5.00,000.00,023.5,022.4,000.0,031.9,024.8,9.4,0000.0,0009.33,0004.08,0003.36
2023-11-13 12:47:00,SystemResetWarning,0835.9,5.00,000.00,023.4,022.4,000.0,031.9,024.8,9.5,0000.0,0009.75,0004.15,0003.37
2023-11-13 12:48:00,SystemResetWarning,0835.9,4.99,000.00,023.4,022.4,000.0,031.9,024.8,9.5,0000.0,0009.92,0004.19,0003.37
2023-11-13 12:49:00,SystemResetWarning,0835.9,5.00,000.00,023.4,022.4,000.0,031.8,024.8,9.4,0000.0,0010.53,0004.25,0003.37
2023-11-13 12:50:00,SystemResetWarning,0836.0,5.00,000.00,023.4,022.3,000.0,031.8,024.8,9.4,0000.0,0010.56,0004.25,0003.35
2023-11-13 12:51:00,SystemResetWarning,0835.9,5.00,000.00,023.4,022.3,000.0,031.8,024.8,9.4,0000.0,0010.59,0004.26,0003.34
2023-11-13 12:52:00,SystemResetWarning,0835.9,5.00,000.00,023.4,022.3,000.0,031.8,024.8,9.4,0000.0,0010.51,0004.24,0003.31
2023-11-13 12:53:00,SystemResetWarning,0835.9,4.99,000.00,023.4,022.3,000.0,031.8,024.8,9.4,0000.0,0010.61,0004.26,0003.30
2023-11-13 12:54:00,SystemResetWarning,0835.9,4.99,000.00,023.4,022.3,000.0,031.8,024.8,9.5,0000.0,0010.98,0004.26,0003.29
2023-11-13 12:55:00,SystemResetWarning,0836.0,5.00,000.00,023.4,022.3,000.0,031.8,024.7,9.5,0000.0,0011.21,0004.22,0003.27
2023-11-13 12:56:00,SystemResetWarning,0835.9,5.00,000.00,023.4,022.3,000.0,031.8,024.8,9.5,0000.0,0011.29,0004.16,0003.26
2023-11-13 12:57:00,SystemResetWarning,0835.9,5.00,000.00,023.4,022.3,000.0,031.8,024.7,9.5,0000.0,0010.15,0004.15,0003.24
2023-11-13 12:58:00,SystemResetWarning,0835.9,5.00,000.00,023.4,022.3,000.0,031.8,024.7,9.5,0000.0,0009.90,0004.10,0003.23
2023-11-13 12:59:00,SystemResetWarning,0835.9,5.00,000.00,023.4,022.3,000.0,031.8,024.8,9.5,0000.0,0010.15,0004.13,0003.24
